Location: Amsterdam
(30.7274°N, 84.4357°W)
Time: 08:25:50
(UTC+00:00)

MOZHAYETS 4 - Pass Details

Date: 19 March 2026
Orbit: 642 x 659 km, 98.3° (Epoch: 19 April)

Event Time Altitude Azimuth Distance (km) Brightness Sun altitude
Rises 10:09:52 0° 146° (SE) 2,975 11.3 -20.6°
Reaches altitude 10° 10:12:14 10° 137° (SE) 2,066 10.6 -20.2°
Maximum altitude 10:16:18 34° 72° (ENE) 1,081 9.4 -19.3°
Drops below altitude 10° 10:20:22 10° 8° (N) 2,073 10.5 -18.4°
Sets 10:22:44 0° 359° (N) 2,986 11.2 -17.9°
